| time (UTC) | temp F | wind direction | speed MPH | gust MPH | rain 1hr in | rain 24hr in | rain mn in | humidity % | barometer mb |
| 20260507020039 | 46 | 326 | 0.0 | 0.0 | 0.00 | 0.00 | 0.00 | 96 | 1008.9 |
| 20260507014543 | 46 | 326 | 0.0 | 0.0 | 0.00 | 0.00 | 0.00 | 96 | 1009.2 |
| 20260507013036 | 46 | 326 | 0.0 | 0.0 | 0.00 | 0.00 | 0.00 | 96 | 1009.2 |
| 20260507011539 | 46 | 326 | 0.0 | 0.0 | 0.00 | 0.00 | 0.00 | 96 | 1008.9 |
| 20260507010049 | 46 | 326 | 0.0 | 0.0 | 0.00 | 0.00 | 0.00 | 96 | 1008.7 |
| 20260507004535 | 46 | 326 | 0.0 | 0.0 | 0.00 | 0.00 | 0.00 | 96 | 1008.5 |
| 20260507003032 | 46 | 326 | 0.0 | 0.0 | 0.00 | 0.00 | 0.00 | 95 | 1008.4 |
| 20260507001528 | 46 | 326 | 0.0 | 0.0 | 0.00 | 0.00 | 0.00 | 95 | 1008.3 |
| 20260507000014 | 46 | 326 | 0.0 | 0.0 | 0.00 | 0.00 | 0.00 | 95 | 1008.1 |
| 20260506234511 | 46 | 326 | 0.0 | 0.0 | 0.00 | 0.00 | 0.00 | 95 | 1007.8 |
| 20260506233012 | 46 | 326 | 0.0 | 0.0 | 0.00 | 0.00 | 0.00 | 95 | 1007.3 |
| 20260506231508 | 46 | 326 | 0.0 | 1.0 | 0.00 | 0.00 | 0.00 | 95 | 1007.2 |
| 20260506230017 | 47 | 326 | 0.0 | 0.0 | 0.00 | 0.00 | 0.00 | 95 | 1007.1 |
| 20260506224506 | 47 | 326 | 0.0 | 0.0 | 0.00 | 0.00 | 0.00 | 95 | 1006.9 |
| 20260506223005 | 47 | 326 | 0.0 | 0.0 | 0.00 | 0.00 | 0.00 | 95 | 1006.7 |
| 20260506221504 | 47 | 326 | 0.0 | 1.0 | 0.00 | 0.00 | 0.00 | 95 | 1006.6 |
| 20260506220133 | 47 | 214 | 0.0 | 2.0 | 0.00 | 0.00 | 0.00 | 95 | 1006.6 |
| 20260506214549 | 47 | 214 | 0.0 | 1.0 | 0.00 | 0.00 | 0.00 | 95 | 1006.5 |
| 20260506213103 | 47 | 203 | 0.0 | 1.0 | 0.00 | 0.00 | 0.00 | 95 | 1006.3 |
| 20260506211537 | 46 | 203 | 0.0 | 1.0 | 0.00 | 0.00 | 0.00 | 95 | 1006.1 |
| 20260506210035 | 47 | 198 | 0.0 | 1.0 | 0.00 | 0.00 | 0.00 | 95 | 1005.9 |
| 20260506204536 | 47 | 203 | 0.0 | 1.0 | 0.00 | 0.00 | 0.00 | 95 | 1005.9 |
| 20260506203035 | 46 | 203 | 0.0 | 1.0 | 0.00 | 0.00 | 0.00 | 94 | 1005.8 |
| 20260506201538 | 47 | 203 | 0.0 | 1.0 | 0.00 | 0.00 | 0.00 | 95 | 1005.8 |
| 20260506200032 | 47 | 203 | 0.0 | 0.0 | 0.00 | 0.00 | 0.00 | 94 | 1005.7 |
| 20260506194531 | 47 | 203 | 0.0 | 0.0 | 0.00 | 0.00 | 0.00 | 94 | 1005.9 |
| 20260506193029 | 47 | 203 | 0.0 | 3.0 | 0.00 | 0.00 | 0.00 | 93 | 1005.9 |
| 20260506191518 | 47 | 212 | 0.0 | 1.0 | 0.00 | 0.00 | 0.00 | 94 | 1005.9 |
| 20260506190025 | 47 | 207 | 0.0 | 1.0 | 0.00 | 0.00 | 0.00 | 94 | 1006.0 |
| 20260506184520 | 47 | 207 | 0.0 | 5.0 | 0.00 | 0.00 | 0.00 | 94 | 1005.9 |
| 20260506183014 | 47 | 191 | 0.0 | 1.0 | 0.00 | 0.00 | 0.00 | 94 | 1006.2 |
| 20260506181514 | 47 | 191 | 0.0 | 1.0 | 0.00 | 0.00 | 0.00 | 94 | 1006.2 |
| 20260506180020 | 48 | 191 | 0.0 | 1.0 | 0.00 | 0.00 | 0.00 | 95 | 1006.1 |
| 20260506174522 | 48 | 191 | 0.0 | 1.0 | 0.00 | 0.00 | 0.00 | 95 | 1005.9 |
| 20260506173011 | 48 | 221 | 0.0 | 1.0 | 0.00 | 0.00 | 0.00 | 95 | 1005.8 |
| 20260506171608 | 48 | 321 | 0.0 | 3.0 | 0.00 | 0.00 | 0.00 | 95 | 1006.2 |
| 20260506170059 | 48 | 183 | 0.0 | 2.0 | 0.00 | 0.00 | 0.00 | 95 | 1006.0 |
| 20260506164556 | 48 | 193 | 0.0 | 1.0 | 0.00 | 0.00 | 0.00 | 95 | 1006.1 |
| 20260506163106 | 48 | 191 | 0.0 | 0.0 | 0.00 | 0.00 | 0.00 | 95 | 1005.9 |
| 20260506161554 | 48 | 191 | 0.0 | 1.0 | 0.00 | 0.00 | 0.00 | 95 | 1005.9 |
| 20260506154552 | 48 | 197 | 0.0 | 1.0 | 0.00 | 0.00 | 0.00 | 95 | 1006.4 |
| 20260506153048 | 48 | 197 | 0.0 | 1.0 | 0.00 | 0.00 | 0.00 | 95 | 1006.6 |
| 20260506151535 | 48 | 196 | 0.0 | 1.0 | 0.00 | 0.00 | 0.00 | 95 | 1006.7 |
| 20260506150029 | 48 | 191 | 0.0 | 1.0 | 0.00 | 0.00 | 0.00 | 95 | 1006.8 |
| 20260506144517 | 48 | 190 | 0.0 | 1.0 | 0.00 | 0.00 | 0.00 | 94 | 1007.1 |
| 20260506143018 | 49 | 191 | 0.0 | 1.0 | 0.00 | 0.00 | 0.00 | 94 | 1007.0 |
| 20260506141514 | 49 | 190 | 0.0 | 1.0 | 0.00 | 0.00 | 0.00 | 94 | 1007.2 |
| 20260506140018 | 50 | 190 | 0.0 | 1.0 | 0.00 | 0.00 | 0.00 | 94 | 1007.0 |
| 20260506134511 | 50 | 186 | 0.0 | 1.0 | 0.00 | 0.00 | 0.00 | 94 | 1006.9 |
| 20260506133013 | 50 | 167 | 0.0 | 1.0 | 0.00 | 0.00 | 0.00 | 94 | 1006.7 |
| 20260506131508 | 50 | 166 | 0.0 | 1.0 | 0.00 | 0.00 | 0.00 | 93 | 1006.8 |
| 20260506130008 | 50 | 166 | 0.0 | 1.0 | 0.00 | 0.00 | 0.00 | 93 | 1007.0 |
| 20260506124551 | 51 | 167 | 0.0 | 2.0 | 0.00 | 0.00 | 0.00 | 94 | 1007.0 |
| 20260506123052 | 52 | 167 | 0.0 | 2.0 | 0.00 | 0.00 | 0.00 | 94 | 1007.0 |
| 20260506121550 | 52 | 169 | 0.0 | 0.0 | 0.00 | 0.00 | 0.00 | 95 | 1007.1 |
| 20260506120051 | 53 | 169 | 0.0 | 1.0 | 0.00 | 0.00 | 0.00 | 95 | 1007.1 |
| 20260506114552 | 53 | 152 | 0.0 | 1.0 | 0.00 | 0.00 | 0.00 | 95 | 1007.0 |
| 20260506113044 | 53 | 153 | 0.0 | 1.0 | 0.00 | 0.00 | 0.00 | 95 | 1006.8 |
| 20260506111543 | 53 | 337 | 0.0 | 4.0 | 0.00 | 0.00 | 0.00 | 95 | 1006.3 |
| 20260506110043 | 53 | 212 | 0.0 | 4.0 | 0.00 | 0.00 | 0.00 | 95 | 1007.3 |
| 20260506104532 | 53 | 244 | 0.0 | 1.0 | 0.00 | 0.00 | 0.00 | 95 | 1006.8 |
| 20260506103032 | 53 | 345 | 0.0 | 1.0 | 0.00 | 0.00 | 0.00 | 94 | 1007.1 |
| 20260506101528 | 53 | 345 | 0.0 | 0.0 | 0.00 | 0.00 | 0.00 | 94 | 1006.5 |
| 20260506100027 | 53 | 346 | 0.0 | 1.0 | 0.00 | 0.00 | 0.00 | 94 | 1006.3 |
| 20260506094526 | 53 | 346 | 0.0 | 0.0 | 0.00 | 0.00 | 0.00 | 94 | 1006.3 |
| 20260506093026 | 53 | 346 | 0.0 | 0.0 | 0.00 | 0.00 | 0.00 | 94 | 1006.6 |
| 20260506091524 | 54 | 349 | 0.0 | 1.0 | 0.00 | 0.00 | 0.00 | 93 | 1006.8 |
| 20260506090022 | 54 | 352 | 0.0 | 1.0 | 0.00 | 0.00 | 0.00 | 94 | 1006.8 |
| 20260506084509 | 54 | 352 | 0.0 | 0.0 | 0.00 | 0.00 | 0.00 | 94 | 1006.9 |
| 20260506083007 | 54 | 352 | 0.0 | 1.0 | 0.00 | 0.00 | 0.00 | 94 | 1007.1 |
| 20260506081509 | 54 | 353 | 0.0 | 0.0 | 0.00 | 0.00 | 0.00 | 94 | 1006.9 |
| 20260506073005 | 55 | 352 | 0.0 | 0.0 | 0.00 | 0.00 | 0.00 | 94 | 1007.5 |
| 20260506071505 | 55 | 352 | 0.0 | 0.0 | 0.00 | 0.00 | 0.00 | 93 | 1007.3 |
| 20260506061529 | 56 | 352 | 0.0 | 0.0 | 0.00 | 0.00 | 0.00 | 92 | 1007.5 |
| 20260506044528 | 58 | 353 | 0.0 | 0.0 | 0.00 | 0.00 | 0.00 | 89 | 1008.0 |
| 20260506043020 | 58 | 352 | 0.0 | 1.0 | 0.00 | 0.00 | 0.00 | 88 | 1008.1 |
| 20260506041506 | 58 | 352 | 0.0 | 1.0 | 0.00 | 0.00 | 0.00 | 87 | 1008.2 |
| 20260506040005 | 59 | 352 | 0.0 | 0.0 | 0.00 | 0.00 | 0.00 | 84 | 1007.6 |
| 20260506034504 | 60 | 352 | 0.0 | 1.0 | 0.00 | 0.00 | 0.00 | 82 | 1007.6 |
| 20260506033004 | 60 | 243 | 0.0 | 1.0 | 0.00 | 0.00 | 0.00 | 81 | 1007.2 |
| 20260506031506 | 60 | 188 | 0.0 | 2.0 | 0.00 | 0.00 | 0.00 | 81 | 1007.5 |
| 20260506030002 | 59 | 205 | 0.0 | 5.0 | 0.00 | 0.00 | 0.00 | 85 | 1007.1 |
| 20260506024600 | 58 | 169 | 0.0 | 2.0 | 0.00 | 0.00 | 0.00 | 92 | 1007.3 |
| 20260506023059 | 58 | 169 | 0.0 | 0.0 | 0.00 | 0.00 | 0.00 | 92 | 1006.7 |
| 20260506021538 | 58 | 169 | 0.0 | 0.0 | 0.00 | 0.00 | 0.00 | 91 | 1006.5 |